sat.trackr.live / text

‹ back to catalog

STARLINK-33852

NORAD 63644 · 2025-083L

PAYLOAD ACTIVE UNKNOWN

§ Identity

Operator
Country
US
Launch date
2025-04-25
Launch site
AFETR
Launch vehicle
Mass (kg)
RCS (m²)

Purposes: comms

External: N2YO · Heavens-Above · Gunter

§ Orbital elements

Epoch: 2026-05-25T02:58:27.692832Z

Period
94.27 min
Inclination
42.9957°
Eccentricity
0.0000702
Mean motion
15.27581746 rev/d
Perigee alt
482.6 km
Apogee alt
483.5 km
Semi-major
6,861.2 km
B*
9.0365e-4
RAAN
293.8006°
Arg perigee
297.0455°
Mean anomaly
63.0324°
Rev number
6,178

§ Raw data

STARLINK-338521 63644U 25083L   26145.12393163  .00024689  00000+0  90365-3 0  99912 63644  42.9957 293.8006 0000702 297.0455  63.0324 15.27581746 61786

JSON: /api/v1/satellites/63644 · /tle

For live sub-satellite position, see the globe view (requires WebGL).

§ Visibility from observer

Set your observer location to see the next 7 days of passes ≥ 10°. The values pass through the URL so the page stays shareable.

No JS? Fill the form by hand. The geolocation button needs JavaScript.